Location: Baia Mare
(47.6567°N, 23.5850°E)
Time: 00:22:34
(UTC+03:00)

ISS - Pass Details

Date: 13 July 2018
Orbit: 402 x 408 km, 51.6° (Epoch: 16 July)

Event Time Altitude Azimuth Distance (km) Brightness Sun altitude
Exits shadow 01:25:31 11° 87° (E) 1,411 -1.1 -20.5°
Drops below altitude 10° 01:25:42 10° 85° (E) 1,471 -1.0 -20.5°
Sets 01:28:01 0° 71° (ENE) 2,333 0.3 -20.5°
